User: anonymous   Login
Location: Unspecified
(0.0000°N, 0.0000°E)
Time: 14:44:55
(UTC+00:00)
Language:

Picosat 6 - Orbit

View from above orbital plane
View from above orbital plane
View from above satellite
View from above satellite

Ground track
Ground track

The orbit data is extracted from the following two-line orbital elements,

1 26094U 00004M   17202.93375878 +.00000078 +00000-0 +41557-4 0  9998
2 26094 100.2054 253.6857 0034888 102.5059 258.0031 14.42333005916004
Epoch (UTC): 21 July 2017 22:24:36
Eccentricity: 0.0034888
inclination: 100.2054°
perigee height: 726 km
apogee height: 775 km
right ascension of ascending node: 253.6857°
argument of perigee: 102.5059°
revolutions per day: 14.42333005
mean anomaly at epoch: 258.0031°
orbit number at epoch: 91600

The dashed part of the orbit path shows where the satellite is in the earth's shadow,  

DLR